Temperature
23 22 21 20 20 21 24 26 26 26 26 26 26 26 24 23 23 23 22 23 23 22 21 20 20 20 20 20 20 20 20 20 20 20 20 20 20 20 20 20 20 20 20 20 20 20 20 20 20
24 23 21 21 21 23 24 26 26 26 26 26 26 25 24 22 23 23 23 23 22 22 21 20 20 21 21 21 20 20 20 20 20 20 20 20 20 20 20 20 20 20 20 20 20 20 20 20 20
24 23 22 21 23 23 25 26 27 27 27 27 26 25 24 24 23 23 24 23 22 22 21 21 20 21 21 21 21 20 20 20 20 20 20 20 20 20 20 20 19 19 19 19 20 20 20 20 20
24 23 23 22 25 25 25 27 27 27 27 27 26 24 23 24 24 24 24 23 22 22 21 21 21 21 21 21 21 20 20 20 20 20 20 20 20 20 20 19 19 19 19 19 19 19 19 19 19
25 24 22 23 24 25 26 27 28 27 27 26 25 23 23 24 24 24 24 23 23 22 21 21 21 21 21 21 21 20 20 20 20 20 20 20 20 19 19 19 19 19 19 19 19 19 19 19 19
25 22 22 24 25 26 27 28 28 27 27 26 25 23 23 24 24 24 24 23 23 23 22 21 21 21 21 21 21 20 20 20 20 20 20 20 19 19 19 19 19 19 19 19 19 19 19 19 19
25 21 23 24 24 26 28 28 28 27 26 26 26 23 23 24 24 24 23 23 22 22 22 21 21 21 21 21 21 20 20 20 20 20 20 20 20 19 19 19 19 19 19 19 19 19 19 19 19
26 21 24 23 25 26 28 29 29 28 27 27 26 24 24 24 24 23 23 22 22 22 22 22 21 21 21 21 21 20 20 20 20 20 20 20 20 20 19 19 19 19 19 19 19 19 19 19 19
25 21 23 24 26 26 27 28 29 28 27 26 26 26 26 25 24 23 22 22 22 22 22 22 22 21 21 21 21 21 21 20 20 20 20 20 20 20 20 19 19 19 19 19 19 19 19 18 18
24 21 24 25 26 26 27 27 28 28 27 26 26 26 26 25 24 23 23 23 23 23 22 22 22 22 21 21 21 21 21 21 21 21 20 20 20 20 20 19 19 19 19 19 19 19 18 18 18
24 23 24 25 27 27 27 28 28 27 26 27 27 27 26 24 24 23 23 23 23 23 23 22 22 22 22 21 21 21 21 21 21 21 20 20 20 20 20 19 19 19 19 19 19 18 18 18 18
24 24 25 26 28 27 27 28 28 28 29 29 29 28 26 25 24 24 24 23 23 23 23 23 22 22 22 21 21 21 21 21 21 21 20 20 20 20 20 20 19 19 19 19 18 18 18 18 18
24 25 26 27 27 27 28 28 28 28 28 28 28 27 26 25 25 24 23 23 23 23 23 23 22 22 22 21 21 21 21 21 21 20 20 20 20 20 19 19 19 19 19 19 18 18 18 18 18
24 24 25 26 26 27 27 27 26 27 27 27 26 26 25 25 24 24 23 23 23 23 22 22 22 22 21 21 21 21 20 20 20 20 20 20 19 19 19 19 19 19 19 18 18 18 18 18 18
24 23 24 25 25 26 27 26 25 25 26 25 24 24 23 23 24 24 24 23 23 23 22 22 21 21 21 21 20 20 20 19 19 19 19 19 19 19 19 19 19 19 19 18 18 18 18 18 18
23 23 23 24 23 25 26 25 24 24 24 23 23 23 23 23 23 23 24 23 23 23 22 22 21 21 21 20 20 20 19 19 19 19 19 19 19 18 18 18 18 19 18 18 18 18 18 17 17
21 22 23 23 23 24 24 23 22 22 23 21 21 22 22 22 22 23 23 23 23 23 22 22 21 21 20 20 20 19 19 19 18 18 18 18 18 18 18 18 18 18 18 18 18 18 17 17 17
23 23 23 23 23 22 22 21 21 21 21 20 20 21 21 21 22 22 22 22 22 22 22 22 21 21 20 20 19 19 19 18 18 18 18 18 18 18 17 17 17 17 17 17 17 17 17 17 17
23 23 23 23 23 22 21 21 21 20 20 19 19 19 20 20 21 22 22 22 22 22 22 22 21 21 20 20 19 19 19 19 18 18 18 18 17 17 17 17 17 17 17 17 17 17 17 17 17
23 23 23 23 23 22 22 21 21 20 20 19 19 18 19 20 21 22 22 23 23 23 22 22 22 21 21 20 20 19 19 18 18 18 17 17 17 17 17 17 17 17 17 17 17 17 17 17 16
23 23 24 24 23 21 22 21 20 20 20 19 19 19 19 20 21 22 22 23 23 22 22 22 21 21 20 20 19 19 18 18 18 17 17 17 17 17 17 16 17 17 16 16 17 17 16 16 16
23 24 24 23 22 20 21 20 20 19 19 18 18 19 20 21 22 22 22 22 22 22 22 21 21 21 20 19 19 18 18 17 17 17 16 16 16 16 16 16 16 16 16 16 16 16 16 16 16
24 22 22 21 21 19 19 19 19 18 19 18 18 19 20 21 22 22 22 22 22 21 21 21 21 20 20 19 18 18 17 17 17 16 16 16 16 16 15 15 15 15 15 15 15 15 15 15 15
23 21 19 17 17 19 20 19 19 17 19 19 18 19 20 21 21 22 22 21 21 21 21 21 20 20 20 19 18 18 17 17 16 16 16 16 15 15 15 15 15 15 15 15 15 15 15 15 15
21 19 18 18 17 18 18 18 18 18 18 18 18 20 20 21 21 21 21 21 21 21 21 21 20 20 20 19 18 18 17 16 16 15 15 15 15 15 15 14 14 14 14 14 14 14 15 15 15
22 19 18 18 17 17 18 18 18 18 18 18 18 18 19 19 20 20 21 21 21 21 21 21 20 20 19 19 18 18 17 16 16 15 15 15 14 14 14 14 14 14 14 14 14 14 14 14 14
21 19 18 16 17 17 17 18 18 16 16 16 16 16 16 17 18 19 19 20 20 20 20 20 20 20 19 19 18 17 17 16 15 15 15 14 14 14 14 13 13 13 13 13 13 13 14 14 14
21 17 15 16 17 17 18 17 15 14 13 13 13 13 13 15 16 17 17 18 19 19 19 19 19 19 19 18 17 17 16 16 15 15 14 14 14 14 13 13 13 13 13 13 13 13 13 13 13
21 19 15 14 15 16 16 16 15 13 12 12 12 12 12 13 14 15 16 17 17 18 18 18 18 18 18 17 17 16 16 15 15 14 14 14 13 13 13 13 13 12 12 12 12 13 13 13 13
20 20 16 17 17 14 14 14 14 13 12 12 12 12 12 12 13 14 15 16 16 17 17 17 17 16 16 16 16 16 16 15 15 14 14 13 13 13 13 12 12 12 12 12 12 12 12 12 12
Wind_Speed
6 6 3 2 3 4 4 4 1 2 3 2 4 5 7 5 3 2 2 10 15 14 17 21 21 20 19 18 17 16 15 15 15 14 14 13 12 11 10 9 9 8 8 8 7 7 7 7 7
5 5 2 2 4 4 5 4 2 1 3 4 5 5 5 3 3 6 6 8 14 14 15 18 21 20 19 18 17 16 15 15 14 13 13 12 11 10 9 8 8 7 7 7 6 6 6 6 6
5 3 3 3 3 2 4 3 0 2 4 3 4 5 5 4 6 8 7 13 13 12 14 18 22 20 19 18 17 16 15 15 14 13 12 11 10 9 8 8 7 7 6 6 6 6 6 6 6
4 2 3 4 2 4 5 4 3 3 2 3 5 6 4 2 8 8 14 15 15 11 14 18 22 20 19 18 17 17 16 14 13 12 12 11 10 9 9 8 8 7 7 7 7 7 7 6 6
3 4 5 4 5 5 5 4 5 3 1 3 4 5 3 4 8 13 16 16 16 11 12 16 21 20 19 19 18 17 16 14 13 12 11 11 10 10 10 10 10 9 9 9 9 8 8 8 8
4 4 4 3 7 7 5 2 2 3 3 3 5 5 2 3 8 13 14 14 13 13 11 14 21 20 19 18 17 16 15 14 13 12 12 11 11 11 11 11 11 11 11 11 11 11 10 10 10
4 4 2 2 5 6 5 3 2 3 4 4 5 6 2 4 6 10 11 10 10 9 8 9 15 18 18 18 17 16 15 14 13 13 12 12 12 12 13 13 13 13 13 13 13 13 13 12 12
5 4 1 2 3 6 6 4 1 4 3 4 5 7 6 7 9 9 9 9 8 8 8 7 9 12 13 14 16 16 15 14 14 13 13 13 13 14 14 14 14 14 14 14 14 15 14 14 14
4 4 1 4 3 6 5 4 3 2 6 3 3 4 6 16 15 12 10 7 8 9 7 7 6 8 9 10 13 15 15 15 15 14 14 14 12 12 12 13 15 16 16 16 16 16 16 16 15
4 3 6 5 4 5 6 3 2 3 3 2 3 6 14 19 16 15 14 14 13 12 11 8 7 6 7 10 10 10 11 11 12 11 12 11 10 11 12 12 16 17 18 18 18 18 18 17 14
4 6 5 5 5 5 4 3 1 6 4 7 8 12 18 17 14 13 13 12 13 11 11 10 9 7 7 6 6 6 8 8 10 11 12 10 9 9 11 10 12 14 15 14 15 15 14 13 12
3 6 5 6 4 3 4 2 1 5 7 5 9 16 18 18 16 14 12 10 9 9 11 9 10 9 8 7 5 5 6 6 8 11 12 10 7 7 8 9 10 11 11 11 12 10 13 14 15
3 5 6 7 8 5 4 4 3 4 2 5 12 14 15 15 12 9 8 8 8 10 10 10 10 10 9 8 6 6 6 7 9 10 12 12 8 8 8 8 9 11 11 10 8 9 9 10 11
4 6 8 9 6 4 4 3 1 3 3 9 13 12 11 11 11 9 9 9 10 10 10 9 10 10 9 8 7 6 6 8 9 10 13 14 12 9 8 9 8 9 11 11 9 9 9 8 7
4 6 8 5 4 4 1 3 3 3 5 9 10 9 9 8 9 9 10 10 10 10 9 9 9 9 9 9 8 6 6 7 7 10 13 13 13 11 9 9 9 9 11 11 9 8 6 6 7
3 4 5 8 7 5 2 3 6 5 7 8 8 8 8 6 6 6 8 8 7 7 7 7 7 8 9 8 7 6 6 6 6 9 10 12 14 14 9 10 10 10 10 8 8 6 5 6 6
6 4 4 8 7 4 4 0 6 6 8 8 7 8 8 6 5 4 5 6 6 6 6 6 5 5 6 7 6 5 5 5 6 8 8 10 12 13 9 10 10 9 8 8 8 6 5 5 6
1 2 4 6 7 7 6 4 5 6 7 7 6 6 7 7 4 4 5 6 6 5 5 5 4 4 4 4 3 3 4 5 5 5 6 9 9 10 8 8 10 9 8 8 8 8 7 6 7
1 1 2 4 4 5 6 4 4 4 4 5 5 6 7 6 3 3 5 6 5 5 5 5 5 4 3 2 2 2 3 4 3 4 4 5 6 7 6 7 8 8 9 10 10 8 9 8 6
2 1 1 3 5 3 3 4 4 3 1 1 3 5 6 5 3 2 2 3 4 5 5 5 5 4 3 2 2 2 2 2 3 3 4 5 5 6 6 6 6 6 7 9 9 8 7 6 7
1 3 2 1 4 6 3 6 4 4 4 3 3 3 4 6 6 5 5 5 5 5 6 5 5 4 4 2 0 1 2 2 3 3 4 5 6 6 5 7 6 6 6 7 8 9 10 8 8
1 3 2 1 3 3 3 2 5 3 3 1 2 4 5 6 7 7 7 7 7 7 5 5 5 4 3 2 1 1 1 3 3 3 4 6 6 6 6 7 6 6 6 7 7 8 8 9 8
2 4 4 3 3 2 4 2 7 4 3 4 6 7 8 8 9 9 9 8 7 6 5 5 5 4 3 2 3 2 3 3 3 4 5 5 5 6 6 7 6 7 6 7 8 7 8 8 9
4 6 6 6 5 2 2 0 5 4 5 5 6 8 9 9 8 9 7 6 6 5 5 5 6 5 4 4 4 4 4 5 5 6 6 5 5 5 6 7 7 7 7 7 8 8 9 9 9
7 7 6 7 6 4 4 2 7 6 5 5 7 8 7 6 6 7 7 7 6 6 6 6 7 7 6 5 5 5 5 5 5 6 5 6 5 5 7 7 7 8 8 8 8 8 9 9 10
2 8 6 3 4 6 4 4 4 5 8 6 4 5 6 7 6 7 7 6 6 7 7 6 7 7 6 6 6 5 5 4 4 5 5 5 5 6 7 8 8 9 9 8 8 7 8 8 9
4 3 6 6 3 2 6 6 7 12 16 14 12 11 11 10 9 9 8 7 6 6 5 5 6 6 6 6 6 5 6 6 6 6 5 5 5 6 7 8 9 9 8 8 7 6 7 6 7
3 8 6 5 4 4 5 3 5 11 14 14 14 13 13 12 13 12 12 11 9 8 7 6 4 5 5 5 5 5 6 6 6 5 6 6 6 6 7 8 8 8 8 7 6 6 5 4 4
2 4 5 4 4 5 5 4 2 4 6 8 10 10 11 12 13 12 12 12 11 12 11 10 9 8 7 6 6 7 7 7 6 6 6 6 6 6 7 8 8 8 8 7 5 5 3 3 2
1 4 6 2 3 4 4 5 3 3 4 6 7 9 9 10 10 11 12 13 15 15 14 12 11 10 9 8 7 8 8 7 7 7 7 5 6 6 6 7 7 7 7 5 4 3 1 1 3
Wind_Direction
163 155 151 146 71 42 4 333 278 329 15 35 104 107 117 125 177 206 101 136 137 148 160 163 161 159 158 157 155 155 154 152 152 151 150 150 150 150 150 151 150 148 146 144 143 143 141 139 137
150 154 160 99 70 36 325 313 355 342 143 112 79 85 86 89 81 114 131 141 143 148 157 162 163 162 162 162 162 162 161 160 159 159 159 159 159 160 161 162 163 162 161 159 160 161 160 158 157
165 175 107 73 73 172 280 290 212 98 154 150 98 78 101 139 142 151 156 144 142 148 156 165 166 166 167 167 168 168 168 168 168 168 169 171 173 175 177 178 180 183 183 184 184 185 185 186 187
140 72 57 56 340 245 236 253 193 151 139 85 105 84 68 75 154 154 145 147 147 150 157 169 168 170 171 172 173 174 175 176 177 179 181 184 188 193 197 199 202 205 207 209 210 211 211 213 215
74 78 50 15 299 276 254 242 193 171 135 85 103 101 65 16 112 135 146 153 154 153 159 173 172 175 176 177 178 180 181 182 185 188 192 198 203 208 214 216 218 221 223 226 227 228 229 230 232
56 62 65 341 309 302 297 264 167 138 117 107 111 108 79 97 132 147 151 154 156 158 160 173 176 179 181 183 184 185 187 189 193 197 203 209 215 220 225 228 228 230 233 235 237 238 239 242 244
106 91 126 278 299 309 321 329 154 137 146 171 138 116 132 156 155 145 142 140 146 155 157 172 179 183 186 188 190 192 194 196 201 207 213 218 225 230 234 236 238 239 241 243 245 247 248 250 251
124 101 61 290 283 292 311 338 64 139 161 133 128 147 190 180 143 128 121 126 141 154 164 170 175 179 184 191 197 199 201 204 209 215 221 227 232 237 240 242 245 248 249 250 252 253 254 256 257
92 79 227 236 244 282 316 342 351 106 117 126 140 168 167 137 138 132 128 132 157 172 176 175 173 175 179 188 202 205 209 212 215 221 227 232 235 242 248 251 250 253 256 257 257 258 259 261 262
96 153 229 225 221 267 304 293 256 106 124 140 80 80 125 139 150 156 163 171 179 185 188 188 182 176 178 196 206 210 214 216 219 221 227 233 233 238 247 253 257 259 260 261 261 261 261 262 260
165 204 244 260 247 252 279 283 215 142 194 207 183 153 147 152 161 171 178 181 185 186 190 194 193 185 188 200 204 211 216 219 223 225 227 232 238 242 248 251 257 261 264 265 264 264 260 255 252
223 252 248 273 283 287 260 270 216 199 228 205 163 152 155 164 174 180 181 180 174 180 194 194 195 196 199 204 212 214 218 221 226 230 229 228 236 242 245 247 248 249 252 254 257 257 257 255 253
251 271 277 269 288 267 249 246 238 253 275 109 128 146 162 170 174 175 172 170 172 187 194 195 193 200 205 210 220 221 224 230 233 234 232 228 233 242 242 246 248 248 247 246 249 250 254 256 258
267 278 286 286 278 252 210 254 223 271 114 120 136 155 162 164 165 166 169 175 182 192 194 193 194 201 204 213 221 229 231 235 240 240 237 231 232 238 241 244 244 245 244 245 244 246 251 257 262
294 310 321 317 318 291 219 327 310 317 116 122 134 139 139 148 156 169 177 181 187 190 190 192 195 199 206 215 223 229 233 236 239 243 243 238 235 237 239 245 247 245 243 242 243 244 244 254 259
21 20 340 314 335 321 150 255 329 356 113 115 128 134 133 135 144 154 162 169 176 173 177 193 203 201 210 216 225 231 235 238 245 248 248 244 241 239 239 245 249 246 243 238 238 236 239 246 255
26 19 324 315 337 357 94 28 340 16 99 104 118 130 131 126 118 126 136 141 144 149 158 174 185 194 207 216 224 233 240 244 250 254 255 254 251 245 237 244 246 243 240 237 235 229 224 237 246
320 342 326 320 333 40 66 46 17 31 90 106 112 117 120 117 109 110 118 122 123 134 147 159 176 193 198 205 220 238 250 254 255 256 260 262 260 257 246 247 249 243 241 237 229 226 220 223 226
203 205 288 298 328 58 63 46 19 28 73 109 119 122 120 108 90 97 121 126 130 142 156 168 178 189 171 167 197 231 255 263 267 269 277 283 281 277 265 264 260 246 239 237 229 224 224 225 213
181 141 279 306 358 64 66 25 351 11 9 141 142 139 127 115 112 133 154 159 168 176 182 185 188 187 188 187 195 214 247 271 274 292 303 304 303 297 291 281 275 262 250 246 238 227 229 226 203
139 160 187 263 1 33 47 358 345 352 22 56 77 107 135 160 177 196 204 208 202 203 200 198 202 201 205 200 126 358 347 328 320 316 315 314 314 308 300 294 287 277 261 254 246 234 232 235 221
209 246 201 132 66 334 32 308 299 331 349 16 171 181 200 208 211 216 220 222 222 222 215 210 209 211 215 178 173 207 252 277 276 290 296 306 309 310 309 304 298 288 275 263 253 241 236 234 234
183 50 67 62 113 50 27 90 293 338 306 253 224 217 221 226 224 227 229 232 236 232 222 218 212 219 222 205 201 215 247 259 284 297 301 305 307 307 309 308 303 294 280 270 263 255 243 235 233
103 68 50 46 65 59 329 80 286 269 247 250 230 230 233 234 237 244 252 255 254 244 225 215 211 223 221 216 216 220 245 271 293 302 307 308 306 304 309 310 304 295 286 275 267 259 251 242 235
66 70 23 5 10 270 285 213 252 278 279 251 237 238 249 256 259 267 269 263 255 241 230 223 217 226 223 221 228 229 237 250 265 281 293 303 308 307 309 310 305 299 290 282 273 263 255 244 238
126 131 151 209 238 281 325 238 253 351 351 349 345 351 355 346 334 317 303 289 276 257 240 228 226 233 228 225 231 231 234 240 253 264 274 283 289 294 299 303 300 296 292 286 278 270 260 250 241
142 149 160 140 175 263 286 294 318 3 11 16 22 24 17 7 1 352 347 339 324 308 284 257 244 247 245 241 240 241 241 242 251 260 267 276 282 292 300 303 302 300 297 291 284 274 267 254 242
119 139 102 120 160 251 286 302 317 346 357 10 21 22 16 15 17 15 12 9 4 357 351 348 318 283 273 263 253 253 248 248 249 254 263 274 285 292 302 306 306 305 303 297 288 280 266 252 239
38 85 96 111 156 173 251 268 44 7 352 3 13 16 14 15 16 16 15 14 14 14 11 3 351 336 317 295 278 266 258 252 251 252 259 269 281 292 299 305 308 307 306 301 293 288 270 239 212
256 141 140 132 258 193 211 247 57 53 11 11 9 7 9 12 13 13 13 14 15 12 8 2 353 341 323 306 290 274 264 254 250 252 257 263 275 287 297 305 309 309 308 305 296 293 277 169 142
Height
1501 1500 1500 1502 1505 1511 1509 1500 1494 1491 1490 1489 1490 1491 1493 1497 1501 1504 1499 1499 1504 1507 1511 1515 1519 1523 1526 1528 1531 1533 1535 1537 1538 1540 1541 1542 1543 1544 1545 1546 1546 1547 1547 1547 1548 1548 1549 1549 1549
1500 1500 1502 1503 1509 1521 1512 1497 1494 1491 1490 1490 1491 1492 1494 1496 1496 1497 1497 1501 1505 1509 1512 1516 1520 1523 1526 1529 1531 1533 1535 1537 1539 1540 1542 1543 1544 1545 1546 1547 1547 1548 1548 1548 1549 1549 1550 1550 1550
1500 1501 1502 1503 1510 1517 1508 1495 1492 1490 1490 1491 1492 1493 1495 1496 1497 1498 1500 1503 1507 1510 1514 1517 1520 1524 1527 1529 1532 1534 1536 1538 1539 1541 1542 1543 1545 1545 1546 1547 1548 1548 1549 1549 1549 1550 1550 1550 1551
1501 1502 1502 1507 1509 1504 1498 1492 1490 1490 1490 1490 1492 1495 1496 1498 1499 1500 1502 1504 1508 1511 1515 1518 1521 1524 1527 1530 1532 1534 1536 1538 1540 1541 1542 1544 1545 1545 1546 1547 1547 1548 1548 1549 1549 1550 1550 1550 1551
1502 1502 1507 1514 1509 1499 1492 1489 1489 1490 1490 1491 1492 1495 1497 1499 1500 1502 1504 1506 1509 1512 1516 1519 1522 1525 1527 1530 1532 1534 1536 1538 1540 1541 1542 1543 1544 1545 1545 1546 1547 1547 1548 1548 1549 1549 1549 1550 1550
1502 1503 1516 1518 1508 1497 1490 1488 1489 1489 1490 1492 1493 1495 1498 1499 1501 1503 1505 1507 1510 1513 1516 1519 1522 1525 1528 1530 1532 1534 1536 1538 1539 1541 1542 1543 1543 1544 1545 1545 1545 1546 1546 1547 1547 1548 1548 1548 1549
1504 1508 1514 1512 1510 1500 1491 1488 1489 1490 1491 1492 1493 1495 1497 1498 1501 1504 1506 1508 1511 1514 1517 1520 1522 1525 1528 1530 1532 1534 1536 1538 1539 1540 1541 1542 1542 1543 1543 1544 1544 1545 1545 1545 1546 1546 1547 1547 1547
1502 1507 1511 1513 1509 1502 1492 1489 1489 1490 1491 1492 1493 1494 1495 1497 1500 1503 1506 1508 1511 1514 1517 1519 1522 1525 1527 1530 1532 1534 1536 1537 1538 1539 1540 1540 1541 1541 1542 1542 1543 1543 1544 1544 1544 1545 1545 1545 1545
1503 1512 1517 1509 1505 1499 1492 1490 1489 1490 1491 1492 1493 1494 1494 1497 1499 1502 1505 1508 1511 1514 1516 1519 1522 1524 1527 1529 1531 1533 1534 1535 1536 1537 1538 1539 1539 1540 1540 1541 1541 1542 1542 1542 1542 1542 1543 1543 1542
1503 1514 1508 1500 1497 1495 1492 1490 1490 1490 1491 1492 1492 1493 1494 1496 1498 1501 1504 1506 1509 1512 1516 1519 1521 1524 1526 1528 1530 1531 1532 1533 1534 1535 1536 1537 1538 1538 1539 1539 1539 1540 1540 1540 1540 1540 1540 1540 1540
1501 1504 1499 1495 1494 1493 1492 1490 1489 1490 1491 1489 1489 1490 1493 1496 1498 1501 1504 1506 1509 1512 1515 1518 1521 1523 1525 1527 1528 1529 1530 1531 1532 1533 1534 1535 1535 1536 1536 1536 1537 1537 1537 1537 1537 1538 1538 1538 1537
1501 1498 1496 1493 1492 1491 1490 1489 1488 1488 1487 1487 1488 1489 1491 1494 1497 1500 1504 1507 1510 1513 1515 1518 1520 1522 1524 1525 1526 1527 1527 1528 1529 1530 1531 1532 1532 1533 1533 1533 1534 1534 1534 1534 1535 1535 1535 1535 1535
1499 1497 1494 1491 1490 1489 1488 1488 1487 1486 1486 1486 1487 1490 1492 1494 1498 1501 1505 1508 1510 1513 1515 1517 1519 1521 1522 1523 1524 1524 1525 1525 1526 1527 1528 1528 1529 1529 1529 1530 1530 1530 1530 1530 1531 1531 1531 1532 1532
1498 1496 1492 1489 1487 1487 1487 1486 1486 1485 1485 1485 1487 1489 1492 1495 1498 1501 1504 1507 1510 1512 1514 1516 1518 1519 1521 1521 1522 1522 1522 1523 1523 1524 1524 1525 1524 1525 1525 1525 1525 1525 1526 1526 1526 1526 1527 1527 1527
1497 1496 1492 1488 1487 1486 1486 1488 1486 1485 1484 1485 1487 1490 1493 1496 1499 1501 1503 1506 1509 1511 1513 1515 1517 1518 1519 1519 1519 1520 1520 1520 1520 1520 1520 1520 1520 1520 1520 1520 1520 1520 1521 1521 1521 1521 1521 1521 1522
1497 1501 1503 1492 1488 1486 1490 1497 1487 1486 1484 1486 1488 1491 1493 1496 1499 1501 1504 1506 1509 1511 1512 1514 1516 1516 1517 1517 1517 1517 1517 1516 1516 1516 1516 1516 1516 1516 1515 1515 1515 1515 1515 1515 1515 1515 1515 1515 1515
1507 1512 1508 1499 1490 1488 1491 1497 1491 1487 1486 1487 1489 1491 1494 1496 1499 1501 1504 1507 1509 1511 1512 1513 1514 1514 1514 1514 1514 1514 1514 1513 1512 1512 1511 1511 1510 1510 1509 1508 1508 1508 1508 1508 1508 1507 1508 1508 1508
1512 1510 1508 1505 1495 1493 1496 1497 1493 1491 1489 1490 1492 1493 1495 1497 1499 1502 1504 1507 1509 1511 1512 1513 1513 1513 1512 1512 1511 1511 1510 1509 1508 1507 1506 1505 1504 1504 1503 1502 1501 1501 1500 1500 1500 1500 1500 1501 1501
1504 1507 1509 1503 1495 1498 1500 1499 1496 1494 1493 1493 1494 1495 1496 1498 1500 1502 1504 1506 1508 1510 1511 1512 1512 1511 1511 1510 1509 1508 1507 1506 1505 1503 1502 1501 1499 1498 1497 1496 1495 1494 1493 1493 1493 1493 1493 1492 1493
1504 1508 1507 1502 1496 1498 1502 1502 1499 1497 1497 1496 1496 1497 1497 1499 1501 1503 1505 1506 1508 1509 1510 1510 1510 1510 1509 1509 1507 1506 1504 1503 1501 1499 1497 1496 1494 1492 1491 1489 1488 1487 1486 1486 1485 1485 1485 1485 1486
1504 1506 1504 1503 1500 1501 1503 1509 1504 1500 1499 1499 1499 1499 1500 1501 1502 1503 1504 1505 1507 1508 1509 1509 1509 1508 1508 1507 1506 1504 1502 1499 1497 1495 1493 1491 1489 1487 1485 1484 1482 1481 1480 1479 1478 1478 1478 1478 1478
1506 1498 1499 1501 1509 1516 1511 1525 1510 1505 1502 1501 1500 1500 1501 1501 1502 1502 1503 1504 1505 1506 1507 1507 1507 1507 1506 1505 1503 1501 1499 1496 1494 1491 1489 1486 1484 1482 1480 1478 1476 1474 1473 1472 1471 1471 1471 1471 1471
1499 1498 1501 1505 1510 1519 1517 1525 1519 1507 1506 1502 1500 1500 1500 1500 1501 1501 1502 1503 1504 1505 1505 1505 1505 1505 1504 1502 1500 1498 1496 1494 1491 1488 1485 1482 1480 1477 1475 1473 1470 1468 1467 1466 1465 1464 1464 1464 1464
1496 1503 1509 1516 1523 1532 1522 1525 1524 1513 1505 1501 1498 1498 1498 1499 1500 1500 1501 1502 1502 1503 1503 1503 1503 1502 1501 1499 1497 1495 1493 1490 1487 1484 1481 1478 1475 1472 1470 1467 1465 1463 1461 1460 1459 1458 1457 1457 1457
1501 1517 1536 1538 1543 1538 1523 1525 1523 1506 1502 1499 1497 1496 1497 1498 1499 1499 1500 1500 1500 1501 1501 1501 1500 1499 1498 1496 1494 1492 1490 1487 1484 1480 1477 1473 1470 1467 1464 1462 1459 1457 1455 1453 1452 1451 1450 1450 1450
1504 1515 1537 1545 1547 1539 1526 1525 1514 1506 1503 1500 1500 1500 1499 1499 1499 1499 1499 1499 1498 1498 1498 1498 1497 1496 1495 1493 1491 1489 1486 1484 1480 1477 1474 1470 1466 1463 1460 1457 1454 1451 1449 1447 1446 1445 1444 1443 1443
1506 1513 1516 1532 1535 1541 1533 1520 1510 1504 1504 1503 1502 1500 1500 1499 1498 1497 1496 1495 1495 1494 1494 1494 1493 1492 1491 1490 1488 1486 1483 1480 1477 1474 1470 1467 1463 1459 1456 1453 1450 1447 1444 1442 1441 1439 1438 1437 1437
1500 1510 1523 1533 1542 1545 1533 1527 1530 1521 1517 1512 1508 1505 1503 1500 1497 1495 1493 1491 1491 1490 1490 1490 1489 1488 1487 1486 1484 1482 1480 1477 1473 1470 1467 1463 1460 1456 1452 1449 1446 1443 1440 1438 1436 1434 1433 1432 1432
1505 1512 1522 1532 1534 1542 1543 1536 1525 1525 1522 1518 1514 1510 1506 1502 1499 1496 1493 1491 1489 1488 1487 1486 1485 1484 1483 1482 1480 1478 1475 1473 1470 1466 1463 1460 1456 1452 1449 1445 1442 1439 1436 1434 1432 1430 1429 1428 1428
1502 1506 1518 1527 1529 1535 1540 1538 1523 1523 1521 1519 1516 1512 1508 1504 1500 1497 1493 1491 1488 1486 1485 1484 1482 1480 1479 1477 1475 1472 1470 1468 1465 1462 1459 1456 1453 1449 1446 1442 1439 1436 1433 1431 1429 1427 1426 1425 1426